TimeCDT,TemperatureF,Dew PointF,Humidity,Sea Level PressureIn,VisibilityMPH,Wind Direction,Wind SpeedMPH,Gust SpeedMPH,PrecipitationIn,Events,Conditions,WindDirDegrees,DateUTC
12:53 AM,77.0,68.0,74,29.87,10.0,South,4.6,-,N/A,,Clear,180,2013-09-01 05:53:00
1:53 AM,75.9,68.0,76,29.87,8.0,Calm,Calm,-,N/A,,Clear,0,2013-09-01 06:53:00
2:53 AM,73.9,69.1,85,29.87,6.0,Calm,Calm,-,N/A,,Haze,0,2013-09-01 07:53:00
3:53 AM,70.0,66.9,90,29.88,6.0,Calm,Calm,-,N/A,,Clear,0,2013-09-01 08:53:00
4:53 AM,73.0,69.1,87,29.88,7.0,Calm,Calm,-,N/A,,Clear,0,2013-09-01 09:53:00
5:53 AM,72.0,69.1,91,29.89,6.0,Calm,Calm,-,N/A,,Clear,0,2013-09-01 10:53:00
6:53 AM,72.0,69.1,91,29.91,5.0,South,4.6,-,N/A,,Clear,170,2013-09-01 11:53:00
7:53 AM,73.9,70.0,87,29.92,5.0,South,3.5,-,N/A,,Clear,190,2013-09-01 12:53:00
8:53 AM,81.0,72.0,74,29.92,9.0,WSW,10.4,-,N/A,,Clear,240,2013-09-01 13:53:00
9:53 AM,86.0,71.1,61,29.94,10.0,West,9.2,-,N/A,,Clear,270,2013-09-01 14:53:00
10:53 AM,90.0,70.0,52,29.93,10.0,West,12.7,-,N/A,,Clear,260,2013-09-01 15:53:00
11:53 AM,91.9,70.0,48,29.92,10.0,SW,6.9,-,N/A,,Clear,220,2013-09-01 16:53:00
12:53 PM,93.9,69.1,44,29.90,10.0,Variable,6.9,-,N/A,,Clear,0,2013-09-01 17:53:00
1:53 PM,97.0,68.0,39,29.88,10.0,West,9.2,-,N/A,,Clear,280,2013-09-01 18:53:00
2:53 PM,97.0,64.9,35,29.86,10.0,Variable,3.5,-,N/A,,Clear,0,2013-09-01 19:53:00
3:53 PM,99.0,64.9,33,29.83,10.0,Variable,4.6,-,N/A,,Clear,0,2013-09-01 20:53:00
4:53 PM,98.1,64.9,34,29.81,10.0,Variable,3.5,-,N/A,,Clear,0,2013-09-01 21:53:00
5:53 PM,98.1,64.0,33,29.81,10.0,South,4.6,-,N/A,,Clear,180,2013-09-01 22:53:00
6:53 PM,93.9,66.9,41,29.82,10.0,South,5.8,-,N/A,,Clear,170,2013-09-01 23:53:00
7:53 PM,88.0,69.1,53,29.83,10.0,South,5.8,-,N/A,,Clear,170,2013-09-02 00:53:00
8:53 PM,84.0,70.0,63,29.85,10.0,SSE,4.6,-,N/A,,Clear,160,2013-09-02 01:53:00
9:53 PM,82.9,70.0,65,29.86,10.0,South,5.8,-,N/A,,Clear,170,2013-09-02 02:53:00
10:53 PM,82.0,70.0,67,29.88,10.0,South,5.8,-,N/A,,Clear,170,2013-09-02 03:53:00
11:53 PM,80.1,70.0,71,29.88,10.0,South,5.8,-,N/A,,Clear,170,2013-09-02 04:53:00